Regional Weather Roundup
Issued by NWS

Home | Current Version | Previous Version | Graphics & Text | Print | Product List | Glossary On
Versions: 1 2 3 4 5 6 7 8 9 10 11 12 13 14 15 16 17 18 19 20 21 22 23 24 25 26 27 28 29 30 31 32 33 34 35 36 37 38 39 40 41 42 43 44 45 46 47 48 49 50
000
ASUS43 KMPX 181101
RWRMN
WEATHER ROUNDUP FOR MINNESOTA
NATIONAL WEATHER SERVICE TWIN CITIES/CHANHASSEN MN
500 AM CST MON DEC 18 2017


NOTE: "FAIR" INDICATES FEW OR NO CLOUDS BELOW 12,000 FEET WITH NO
SIGNIFICANT WEATHER AND/OR OBSTRUCTIONS TO VISIBILITY. N/A MEANS
CURRENT SKY AND/OR WEATHER CONDITIONS ARE NOT AVAILABLE.

MNZ060>063-068>070-181200-
   Twin Cities Metro

CITY           SKY/WX    TMP DP  RH WIND       PRES   REMARKS
TWIN CITIES    CLOUDY    26  25  96 SE5       29.84F FOG     WCI  20
ST PAUL        CLOUDY    26  25  96 S7        29.86F FOG     WCI  18
CRYSTAL        CLOUDY    26  22  84 S7        29.82F FOG     WCI  18
BLAINE         CLOUDY    27  27 100 S7        29.82F FOG     WCI  19
LAKEVILLE      CLOUDY    25  25 100 S3        29.84F FOG
EDEN PRAIRIE   CLOUDY    26  24  92 S6        29.83F FOG     WCI  19
SOUTH ST PAUL  CLOUDY    27  27  99 S5        29.84F FOG     WCI  22
LAKE ELMO      MOCLDY    27  27 100 S5        29.85F FOG     WCI  21
$$
MNZ001>005-007-008-013>017-022>024-027-028-181200-
   Northwest Minnesota

CITY           SKY/WX    TMP DP  RH WIND       PRES   REMARKS
BEMIDJI        CLOUDY    28  27  96 S8        29.62F WCI  20
HALLOCK        CLOUDY    27  25  93 S14       29.54F WCI  15
ROSEAU         CLOUDY    30  27  86 SW13      29.55F WCI  20
WARROAD        CLOUDY    30  27  86 SW14G20   29.55F WCI  20
CROOKSTON      CLOUDY    27  27 100 SW12      29.63F WCI  16
FOSSTON        CLOUDY    28  27  93 S14       29.63F WCI  17
DETROIT LAKES  CLOUDY    32  30  93 SW9       29.67F WCI  24
MOORHEAD       CLOUDY    30  27  86 CALM      29.68F
PARK RAPIDS    CLOUDY    27  24  89 S7        29.66F FOG     WCI  19
MAHNOMEN       FAIR      28  27  94 S14       29.63F WCI  17
$$
MNZ006-009>011-018-025>026-181200-
   North Central Minnesota

CITY           SKY/WX    TMP DP  RH WIND       PRES   REMARKS
BAUDETTE       CLOUDY    30  27  88 S14       29.56F WCI  19
FLAG ISLAND    PTCLDY    25  23  93 S8        29.52F WCI  16
INTL FALLS     PTCLDY    26  23  88 S7        29.60F FOG     WCI  18
WASKISH        CLOUDY    28  27  93 S9G17     29.59F WCI  20
BIG FORK       CLOUDY    28  27  93 S8        29.64F FOG     WCI  20
LONGVILLE      CLOUDY    27  25  93 S6        29.70F FOG     WCI  20
GRAND RAPIDS   FLURRIES  25  22  88 S10       29.71F WCI  15
CRANE LAKE     CLOUDY    27  25  93 S6        29.67F WCI  20
ORR            CLOUDY    27  25  93 S7        29.63F WCI  19
COOK           CLOUDY    27  25  93 S9        29.67F WCI  17
WALKER         CLOUDY    28  26  93 SW9       29.67F WCI  19
$$
MNZ012-019>021-037-181200-
   Northeast Minnesota

CITY           SKY/WX    TMP DP  RH WIND       PRES   REMARKS
DULUTH         CLOUDY    22  21  96 SW9       29.73F WCI  12
ELY            CLOUDY    27  27 100 SW8       29.68F WCI  18
HIBBING        CLOUDY    24  21  88 S5        29.69F WCI  18
EVELETH        CLOUDY    24  20  85 S6        29.71F WCI  17
DULUTH HARBOR  CLOUDY    27  23  86 SW8       29.79F WCI  18
TWO HARBORS    CLOUDY    28  23  80 SW7       29.73F HAZE    WCI  21
SILVER BAY     CLOUDY    27  27 100 SW7       29.73F FOG     WCI  19
GRAND MARAIS     N/A     26  22  84 W8        29.75F WCI  18
G MARAIS ARPRT FOG       18  12  79 CALM      29.69F VSB 1
$$
MNZ029>031-032-039>041-046>048-054>057-064-181200-
   West Central Minnesota

CITY           SKY/WX    TMP DP  RH WIND       PRES   REMARKS
FERGUS FALLS   CLOUDY    28  28 100 S8        29.73F WCI  20
WHEATON        CLOUDY    30  27  86 S8        29.73F WCI  23
MORRIS         CLOUDY    28  27  93 S7        29.72F WCI  21
ALEXANDRIA     CLOUDY    31  27  85 S12       29.72F WCI  22
ELBOW LAKE     FAIR      28  27  94 S10       29.72F WCI  19
WADENA         CLOUDY    28  28 100 SW7       29.69F WCI  21
GLENWOOD       CLOUDY    28  27  93 S7        29.74F WCI  21
APPLETON       CLOUDY    34  28  80 S8        29.75F WCI  27
BENSON         CLOUDY    28  25  86 S8        29.76F WCI  20
ORTONVILLE     PTCLDY    32  27  80 SW6       29.73F WCI  26
MADISON        CLOUDY    30  27  86 S5        29.76F WCI  25
WILLMAR        FAIR      28  27  93 CALM      29.78F
$$
MNZ033>034-036-042>043-049>051-058-059-181200-
   Central Minnesota

CITY           SKY/WX    TMP DP  RH WIND       PRES   REMARKS
ST CLOUD       CLOUDY    25  24  96 S6        29.78F WCI  18
SAUK CENTRE    CLOUDY    29  26  89 S7        29.75F WCI  21
PAYNESVILLE    CLOUDY    28  27  93 S6        29.77F WCI  22
AITKIN         PTCLDY    23  19  86 S7        29.71F WCI  15
PINE RIVER     CLOUDY    23  21  93 S6        29.75F FOG     WCI  16
BRAINERD       CLOUDY    27  23  85 S8        29.72F FOG     WCI  19
STAPLES        CLOUDY    25  25 100 S9        29.70F FOG     WCI  15
LONG PRAIRIE   CLOUDY    28  27  93 S8        29.74F WCI  20
LITTLE FALLS   CLOUDY    27  21  80 SE5       29.75F WCI  21
LITCHFIELD     CLOUDY    28  28 100 CALM      29.79F
BUFFALO        PTCLDY    26  24  91 S5        29.81F FOG     WCI  21
MAPLE LAKE     PTCLDY    27  26  95 S6        29.81F FOG     WCI  20
HUTCHINSON     CLOUDY    27  26  94 CALM      29.81F FOG
$$
MNZ037-044-045-052-053-181200-
   East Central Minnesota

CITY           SKY/WX    TMP DP  RH WIND       PRES   REMARKS
PRINCETON      CLOUDY    27  23  86 S5        29.79F FOG     WCI  21
MORA           CLOUDY    25  23  93 S3        29.80F FOG
CAMBRIDGE      CLOUDY    27  25  93 S7        29.81F FOG     WCI  19
RUSH CITY      CLOUDY    25  24  95 S7        29.81F FOG     WCI  17
MOOSE LAKE     CLOUDY    25  21  86 S6        29.75F FOG     WCI  18
HINCKLEY       CLOUDY    27  27 100 S6        29.79F FOG     WCI  20
CLOQUET        CLOUDY    23  19  86 S7        29.74F FOG     WCI  15
MCGREGOR       CLOUDY    27  23  86 S6        29.74F WCI  20
$$
MNZ071>073-080-081-089-090-097-098-181200-
   Southwest Minnesota

CITY           SKY/WX    TMP DP  RH WIND       PRES   REMARKS
MONTEVIDEO     CLOUDY    30  27  86 SW9       29.76F WCI  22
GRANITE FALLS  CLOUDY    30  27  89 S9        29.81F WCI  22
CANBY          PTCLDY    35  28  78 SW3       29.77F
MARSHALL       CLOUDY    29  26  89 S10       29.78F WCI  20
REDWOOD FALLS  CLEAR     30  27  88 SW12      29.80F WCI  20
OLIVIA         CLOUDY    30  28  93 S8        29.79F WCI  23
PIPESTONE      CLOUDY    27  23  86 SW10      29.78F WCI  17
WINDOM           N/A     27  16  63 SW9       29.82F WCI  17
WORTHINGTON    PTCLDY    23  22  96 S7        29.82F WCI  15
JACKSON        PTCLDY    25  23  93 S7        29.84F FOG     WCI  17
SLAYTON        CLOUDY    28  25  90 SW16      29.80F WCI  16
$$
MNZ065>067-074>077-082>085-091>093-181200-
   South Central Minnesota

CITY           SKY/WX    TMP DP  RH WIND       PRES   REMARKS
MANKATO        CLOUDY    25  23  92 S9        29.84F FOG     WCI  15
NEW ULM        CLOUDY    25  23  93 S7        29.82F FOG     WCI  17
ST JAMES       CLEAR     27  25  93 S7        29.85F WCI  19
FAIRMONT       CLEAR     24  23  96 S8        29.86F FOG     WCI  15
GLENCOE        CLOUDY    28  28 100 S5        29.81F FOG     WCI  22
FARIBAULT      CLOUDY    27  25  93 S6        29.85F FOG     WCI  20
OWATONNA       CLOUDY    27  27 100 S7        29.85F FOG     WCI  19
WASECA         CLOUDY    27  25  93 S6        29.87F FOG     WCI  20
ALBERT LEA     CLOUDY    27  25  93 S5        29.87F FOG     WCI  21
$$
MNZ078>079-086>088-094>096-181200-
   Southeast Minnesota

CITY           SKY/WX    TMP DP  RH WIND       PRES   REMARKS
ROCHESTER      CLOUDY    28  27  96 SW8       29.87S FOG     WCI  20
RED WING       CLOUDY    27  25  93 CALM      29.86F FOG
STANTON        CLOUDY    29  26  89 S7        29.84F WCI  22
DODGE CENTER   CLOUDY    27  25  93 S6        29.86S FOG     WCI  20
WINONA         CLOUDY    30  28  93 W3        29.90F
AUSTIN         CLOUDY    27  25  93 SW5       29.88S FOG     WCI  21
PRESTON        FOG       26  25  95 SW7       29.88F VSB 1/2 WCI  18
$$
ABBREVIATIONS USED IN REMARKS
   TC - TEMPERATURES IN CELSIUS
  WCI - WIND CHILL INDEX
   HX - HEAT INDEX
  VSB - VISIBILITY
$$




USA.gov is the U.S. government's official web portal to all federal, state and local government web resources and services.